Change the Weather History Date:

Wednesday, November 20, 2013

  Actual Average Record
Temperature  
Mean Temperature 46 °F -  
Max Temperature 61 °F - 76 °F (1979)
Min Temperature 30 °F - 18 °F (1951)
Degree Days  
Heating Degree Days 20    
Month to date heating degree days  
Since 1 July heating degree days  
Cooling Degree Days 0    
Month to date cooling degree days  
Moisture  
Dew Point 31 °F    
Average Humidity 61    
Maximum Humidity 89    
Minimum Humidity 33    
Precipitation  
Precipitation 0.00 in - 1.81 in (1991)
Month to date precipitation  
Sea Level Pressure  
Sea Level Pressure 30.19 in    
Wind  
Wind Speed 6 mph (SE)    
Max Wind Speed 10 mph    
Max Gust Speed 17 mph    
Visibility 10 miles    
Events      
T = Trace of Precipitation, MM = Missing Value Source: NWS Daily Summary

Daily Weather History Graph

Daily Weather History Graph

Search for Another Location

Airport or City:

Trip Planner

Search our weather history database for the weather conditions in past years. The results will help you decide how hot, cold, wet, or windy it might be!

Date:

Astronomy

Nov. 20, 2013 Rise Set
Actual Time 6:32 AM CST 4:37 PM CST
Civil Twilight 6:04 AM CST 5:05 PM CST
Nautical Twilight 5:33 AM CST 5:36 PM CST
Astronomical Twilight 5:02 AM CST 6:07 PM CST
Moon 7:20 PM CST (11/20) 8:57 AM CST (11/20)
Length of Visible Light 11h 00m
Length of Day
10h 04m
Waning Gibbous, 91% of the Moon is Illuminated
Nov 20
Waning Gibbous
Nov 25
Last Quarter
Dec 2
New
Dec 9
First Quarter
Dec 17
Full

Hourly Weather History & Observations

Time (CST) Temp. Windchill Dew Point Humidity Pressure Visibility Wind Dir Wind Speed Gust Speed Precip Events Conditions
12:52 AM 36.0 °F 30.3 °F 28.9 °F 76% 30.20 in 10.0 mi ENE 6.9 mph - N/A   Clear
1:52 AM 34.0 °F 31.0 °F 28.0 °F 79% 30.22 in 10.0 mi ENE 3.5 mph - N/A   Clear
2:52 AM 34.0 °F 31.0 °F 28.0 °F 79% 30.22 in 10.0 mi ENE 3.5 mph - N/A   Clear
3:52 AM 30.9 °F 27.5 °F 28.0 °F 89% 30.22 in 10.0 mi NE 3.5 mph - N/A   Clear
4:52 AM 30.9 °F 25.2 °F 27.0 °F 85% 30.22 in 10.0 mi East 5.8 mph - N/A   Clear
5:52 AM 30.9 °F 27.5 °F 28.0 °F 89% 30.23 in 10.0 mi East 3.5 mph - N/A   Clear
6:52 AM 30.9 °F 26.2 °F 28.0 °F 89% 30.24 in 10.0 mi ESE 4.6 mph - N/A   Clear
7:52 AM 34.0 °F 28.0 °F 30.0 °F 85% 30.24 in 10.0 mi ESE 6.9 mph - N/A   Clear
8:52 AM 39.9 °F 35.8 °F 32.0 °F 73% 30.25 in 10.0 mi SE 5.8 mph - N/A   Clear
9:52 AM 48.0 °F - 30.9 °F 52% 30.24 in 10.0 mi South 10.4 mph - N/A   Clear
10:52 AM 52.0 °F - 33.1 °F 49% 30.21 in 10.0 mi SSE 10.4 mph - N/A   Clear
11:52 AM 55.9 °F - 33.1 °F 42% 30.19 in 10.0 mi SE 10.4 mph - N/A   Clear
12:52 PM 60.1 °F - 33.1 °F 36% 30.15 in 10.0 mi South 9.2 mph - N/A   Clear
1:52 PM 61.0 °F - 32.0 °F 34% 30.15 in 10.0 mi South 10.4 mph 17.3 mph N/A   Clear
2:52 PM 60.1 °F - 30.9 °F 33% 30.14 in 10.0 mi South 10.4 mph - N/A   Clear
3:52 PM 59.0 °F - 32.0 °F 36% 30.14 in 10.0 mi SSE 5.8 mph - N/A   Clear
4:52 PM 53.1 °F - 32.0 °F 45% 30.14 in 10.0 mi SE 4.6 mph - N/A   Clear
5:52 PM 51.1 °F - 32.0 °F 48% 30.16 in 10.0 mi ESE 4.6 mph - N/A   Clear
6:52 PM 48.9 °F - 33.1 °F 54% 30.16 in 10.0 mi SE 6.9 mph - N/A   Clear
7:52 PM 48.0 °F - 32.0 °F 54% 30.17 in 10.0 mi SE 5.8 mph - N/A   Clear
8:52 PM 48.0 °F - 30.9 °F 52% 30.19 in 10.0 mi SSE 4.6 mph - N/A   Clear
9:52 PM 45.0 °F 41.2 °F 32.0 °F 60% 30.19 in 10.0 mi SE 6.9 mph - N/A   Clear
10:52 PM 45.0 °F 41.8 °F 33.1 °F 63% 30.19 in 10.0 mi SSE 5.8 mph - N/A   Clear
11:52 PM 43.0 °F 38.8 °F 33.1 °F 68% 30.20 in 10.0 mi SE 6.9 mph - N/A   Clear